[[{"header":{"parameterUnit":"m.s-1","parameterCategory":2,"la1":30.2992,"la2":30.254,"lo1":-89.0895,"lo2":-89.0443,"dy":0.0025,"dx":0.0025,"nx":19,"ny":19,"refTime":"2026-03-20T21:00:00:Z","depth":"0","parameterNumber":2,"parameterNumberName":"U-component_of_CURRENTS"},"data":[0,0,0,0.4014,0.4016,0.4109,0.411,0.4341,0.4344,0,0,0,0,0,0,0,0,0,0,0,0.3958,0.3958,0.4014,0.4016,0.4109,0.411,0.4341,0.4344,0,0,0,0,0,0,0,0,0,0,0,0.3958,0.3958,0.3958,0.4017,0.4109,0.411,0.434,0.424,0,0,0,0,0,0,0,0,0,0,0.4135,0.4056,0.3958,0.3958,0.4017,0.4109,0.411,0.4234,0.4247,0.4333,0,0.4332,0,0.4361,0.4362,0.4363,0,0,0,0.401,0.4045,0.409,0.3958,0.4018,0.4109,0.4066,0.424,0.4255,0.435,0.4335,0.4344,0.4365,0.4364,0.4365,0.4538,0.4538,0,0,0.4005,0.3966,0.408,0.4098,0.4027,0.4063,0.4069,0.4247,0.4248,0.4336,0.435,0.4369,0.4366,0.4368,0.4539,0.4538,0,0,0,0.3994,0.3962,0.3999,0.4089,0.4107,0.4066,0.4072,0.4238,0.4256,0.4352,0.4371,0.4367,0.4371,0.4539,0.4539,0.4471,0,0,0,0.3991,0.3957,0.3996,0.3973,0.4102,0.4157,0.4059,0.4242,0.4264,0.437,0.4367,0.4373,0.4539,0.4539,0.4473,0.4428,0,0,0,0.3956,0.3954,0.3962,0.397,0.4019,0.4154,0.418,0.4246,0.4278,0.4363,0.4374,0.4539,0.4539,0.4475,0.4432,0.4473,0,0,0,0.3917,0.3903,0.396,0.395,0.4018,0.4074,0.4179,0.4229,0.4289,0.4369,0.4539,0.4539,0.4476,0.4435,0.4474,0.4436,0.4426,0,0,0.3877,0.3897,0.3892,0.3947,0.3972,0.4062,0.4104,0.4225,0.4318,0.4489,0.4492,0.4473,0.4433,0.4473,0.441,0.4401,0,0,0,0.3865,0.3862,0.3879,0.3907,0.3972,0.4035,0.415,0.4225,0.4354,0.4356,0.4483,0.446,0.4488,0.4467,0.446,0.4402,0.4537,0.4537,0.4537,0.3756,0.3802,0.3795,0.3861,0.3903,0.4027,0.4094,0.4224,0.4323,0.4364,0.4413,0.4403,0.4379,0.4374,0.4313,0.4431,0.4431,0.4431,0.443,0.3681,0.3669,0.3732,0.3741,0.3829,0.3882,0.4072,0.4155,0.4319,0.4366,0.4399,0.4405,0.4362,0.43,0.4426,0.4427,0.4428,0.4428,0.4428,0.3591,0.3594,0.3604,0.3628,0.3671,0.3796,0.3894,0.4062,0.4238,0.4283,0.4332,0.4333,0.4278,0.4327,0.4327,0.4327,0.4326,0.4326,0.4326,0.3486,0.3506,0.3483,0.3521,0.3528,0.36,0.3804,0.3926,0.413,0.4251,0.4252,0.4254,0.4373,0.4375,0.4326,0.4326,0.4326,0.4326,0.4326,0.338,0.3396,0.3361,0.3354,0.3375,0.3366,0.3586,0.3803,0.3981,0.4066,0.416,0.4264,0.4295,0.43,0.4302,0.4237,0.4237,0.4237,0.4237,0.3302,0.3313,0.3237,0.3195,0.3192,0.3249,0.3293,0.355,0.3883,0.4018,0.4089,0.4074,0.408,0.4098,0.4108,0.4107,0.3994,0.3993,0.3993,0.3231,0.3227,0.3133,0.31,0.3076,0.3096,0.3074,0.3218,0.3719,0.3979,0.4013,0.4023,0.3998,0.4012,0.4043,0.4062,0.4061,0,0]},{"header":{"parameterUnit":"m.s-1","parameterCategory":2,"la1":30.2992,"la2":30.254,"lo1":-89.0895,"lo2":-89.0443,"dy":0.0025,"dx":0.0025,"nx":19,"ny":19,"refTime":"2026-03-20T21:00:00:Z","depth":"0","parameterNumber":3,"parameterNumberName":"V-component_of_CURRENTS"},"data":[0,0,0,0.1281,0.1282,0.1299,0.1298,0.1299,0.1299,0,0,0,0,0,0,0,0,0,0,0,0.1281,0.1281,0.1281,0.1282,0.1299,0.1298,0.1299,0.1299,0,0,0,0,0,0,0,0,0,0,0,0.128,0.1281,0.1282,0.1282,0.1299,0.1298,0.1299,0.1289,0,0,0,0,0,0,0,0,0,0,0.1274,0.128,0.1281,0.1282,0.1282,0.1299,0.1298,0.1288,0.1289,0.1289,0,0.1306,0,0.1306,0.13,0.13,0,0,0,0.127,0.1279,0.1286,0.1282,0.1283,0.1299,0.1288,0.1289,0.129,0.129,0.1306,0.1306,0.1306,0.13,0.13,0.14,0.1401,0,0,0.1269,0.1276,0.1286,0.1288,0.1306,0.1287,0.1288,0.129,0.1297,0.1306,0.1306,0.1306,0.13,0.13,0.1399,0.1401,0,0,0,0.1275,0.1276,0.1283,0.1288,0.1294,0.1288,0.1289,0.1297,0.1301,0.1306,0.1306,0.13,0.13,0.1398,0.14,0.1545,0,0,0,0.1274,0.128,0.1283,0.1286,0.1295,0.1298,0.1296,0.1301,0.1301,0.1306,0.13,0.13,0.1397,0.1399,0.1538,0.1594,0,0,0,0.1276,0.1279,0.1288,0.1287,0.1299,0.1298,0.1302,0.13,0.1301,0.13,0.13,0.1396,0.1399,0.1533,0.1584,0.1613,0,0,0,0.1272,0.1318,0.1289,0.1351,0.1299,0.1375,0.1302,0.1348,0.1361,0.13,0.1397,0.14,0.1531,0.1579,0.1608,0.1599,0.1622,0,0,0.1331,0.1325,0.1366,0.1341,0.1421,0.1371,0.147,0.1446,0.1393,0.139,0.1392,0.154,0.1584,0.1612,0.174,0.1759,0,0,0,0.1386,0.1409,0.1432,0.1471,0.1506,0.1546,0.1528,0.1527,0.1538,0.1412,0.155,0.1572,0.1585,0.1569,0.1585,0.1323,0.1411,0.1411,0.1411,0.1439,0.1471,0.1543,0.1584,0.1637,0.168,0.1722,0.1714,0.1649,0.1681,0.1698,0.1829,0.1818,0.1828,0.156,0.171,0.171,0.1711,0.1711,0.1512,0.155,0.1612,0.1684,0.1745,0.1825,0.1894,0.188,0.1923,0.1843,0.1848,0.1734,0.1854,0.1561,0.172,0.1719,0.1718,0.1717,0.1716,0.1514,0.1542,0.159,0.1702,0.1821,0.19,0.2029,0.2062,0.2035,0.2083,0.1989,0.1985,0.1715,0.206,0.206,0.2061,0.2061,0.2061,0.2061,0.1482,0.1542,0.1601,0.172,0.1806,0.1947,0.2097,0.2155,0.2174,0.2141,0.2139,0.1735,0.1934,0.1905,0.2068,0.2067,0.2066,0.2065,0.2065,0.1467,0.1489,0.1581,0.1659,0.1869,0.2026,0.2157,0.2268,0.2286,0.2285,0.1876,0.2154,0.2091,0.2076,0.205,0.224,0.224,0.224,0.224,0.1437,0.1461,0.1581,0.1711,0.1892,0.2071,0.2259,0.2371,0.2148,0.1952,0.1801,0.1693,0.1698,0.1602,0.1598,0.1558,0.1619,0.1618,0.1617,0.1417,0.1467,0.1541,0.1693,0.1912,0.212,0.232,0.2429,0.197,0.1561,0.1439,0.1466,0.1275,0.1303,0.1123,0.1138,0.1061,0,0]}],[{"header":{"parameterUnit":"m.s-1","parameterCategory":2,"la1":30.2992,"la2":30.254,"lo1":-89.0895,"lo2":-89.0443,"dy":0.0025,"dx":0.0025,"nx":19,"ny":19,"refTime":"2026-03-20T21:00:00:Z","depth":"2","parameterNumber":2,"parameterNumberName":"U-component_of_CURRENTS"},"data":[0,0,0,0.1898,0.1904,0.2258,0.226,0.2694,0.2697,0,0,0,0,0,0,0,0,0,0,0,0.1793,0.1795,0.1898,0.1905,0.2258,0.226,0.2694,0.2697,0,0,0,0,0,0,0,0,0,0,0,0.1792,0.1795,0.1797,0.1906,0.2258,0.2261,0.2693,0.2443,0,0,0,0,0,0,0,0,0,0,0.2107,0.2012,0.1794,0.1797,0.1908,0.2257,0.2261,0.2432,0.2458,0.2513,0,0.2554,0,0.2607,0.2721,0.2723,0,0,0,0.1956,0.199,0.2055,0.1797,0.191,0.2256,0.2113,0.2447,0.2477,0.2548,0.2561,0.2577,0.2614,0.2724,0.2725,0.289,0.2889,0,0,0.1937,0.1896,0.2033,0.2073,0.1985,0.2101,0.2123,0.2466,0.2507,0.2562,0.2587,0.2621,0.2726,0.2729,0.2891,0.289,0,0,0,0.1846,0.1882,0.1942,0.2055,0.2105,0.211,0.2136,0.2494,0.2505,0.2592,0.2626,0.2728,0.2733,0.2892,0.2891,0.2915,0,0,0,0.1837,0.1825,0.1932,0.1918,0.2097,0.2309,0.2156,0.2482,0.2522,0.2624,0.2728,0.2736,0.2893,0.2891,0.2917,0.2908,0,0,0,0.178,0.1821,0.1848,0.1913,0.2038,0.2304,0.234,0.2493,0.254,0.2723,0.2737,0.2894,0.2892,0.2918,0.291,0.2957,0,0,0,0.1745,0.1782,0.1848,0.1913,0.2034,0.2186,0.2339,0.2515,0.2664,0.273,0.2893,0.2891,0.2918,0.2912,0.2957,0.2823,0.2812,0,0,0.1757,0.1784,0.1816,0.1881,0.1995,0.2142,0.2294,0.2559,0.2641,0.2791,0.2797,0.2916,0.291,0.2957,0.2703,0.2695,0,0,0,0.1796,0.1827,0.187,0.1966,0.2078,0.2235,0.2454,0.2537,0.2724,0.2709,0.2866,0.286,0.2891,0.2808,0.2801,0.2881,0.2881,0.2881,0.2882,0.1783,0.1841,0.1907,0.2008,0.2112,0.2322,0.2446,0.259,0.2697,0.2745,0.2845,0.2842,0.2749,0.2743,0.2813,0.2813,0.2813,0.2813,0.2813,0.1787,0.1805,0.1922,0.2006,0.2149,0.2292,0.2502,0.2606,0.2767,0.2799,0.283,0.279,0.2737,0.2814,0.2814,0.2814,0.2814,0.2814,0.2814,0.1745,0.1751,0.1836,0.1958,0.2111,0.2302,0.2451,0.263,0.2769,0.2821,0.2782,0.278,0.29,0.2879,0.2879,0.2879,0.2879,0.288,0.288,0.1636,0.1713,0.177,0.1907,0.2002,0.2182,0.2454,0.2569,0.2717,0.2769,0.2769,0.2864,0.2862,0.2901,0.2882,0.2882,0.2881,0.2881,0.2881,0.1531,0.1585,0.166,0.1744,0.1942,0.2035,0.2287,0.2482,0.2619,0.2649,0.2739,0.2742,0.2728,0.273,0.2764,0.2711,0.2711,0.2711,0.2711,0.1445,0.1474,0.1587,0.1691,0.1813,0.1978,0.2035,0.2077,0.2276,0.2272,0.229,0.2208,0.2226,0.218,0.2195,0.2217,0.2021,0.2019,0.2018,0.1372,0.1431,0.1487,0.1625,0.1762,0.1883,0.1841,0.1759,0.1858,0.1984,0.2099,0.2678,0.2608,0.2616,0.2587,0.2595,0.2646,0,0]},{"header":{"parameterUnit":"m.s-1","parameterCategory":2,"la1":30.2992,"la2":30.254,"lo1":-89.0895,"lo2":-89.0443,"dy":0.0025,"dx":0.0025,"nx":19,"ny":19,"refTime":"2026-03-20T21:00:00:Z","depth":"2","parameterNumber":3,"parameterNumberName":"V-component_of_CURRENTS"},"data":[0,0,0,-0.0585,-0.0585,-0.0623,-0.0623,-0.0568,-0.0567,0,0,0,0,0,0,0,0,0,0,0,-0.0558,-0.0558,-0.0585,-0.0585,-0.0623,-0.0623,-0.0568,-0.0567,0,0,0,0,0,0,0,0,0,0,0,-0.0558,-0.0558,-0.0558,-0.0586,-0.0623,-0.0623,-0.0568,-0.0566,0,0,0,0,0,0,0,0,0,0,-0.0542,-0.0525,-0.0558,-0.0558,-0.0586,-0.0623,-0.0623,-0.0567,-0.0566,-0.052,0,-0.0517,0,-0.0542,-0.0561,-0.056,0,0,0,-0.0587,-0.0526,-0.0544,-0.0558,-0.0586,-0.0623,-0.0607,-0.0567,-0.0566,-0.0518,-0.0516,-0.0515,-0.0541,-0.056,-0.056,-0.0518,-0.0518,0,0,-0.0585,-0.0557,-0.0545,-0.0543,-0.0581,-0.0606,-0.0608,-0.0568,-0.0552,-0.0516,-0.0515,-0.054,-0.0559,-0.0559,-0.0518,-0.0518,0,0,0,-0.0578,-0.0555,-0.0577,-0.0544,-0.056,-0.0607,-0.0609,-0.0554,-0.0563,-0.0515,-0.054,-0.0559,-0.0558,-0.0517,-0.0518,-0.0332,0,0,0,-0.0577,-0.0551,-0.0575,-0.0558,-0.0561,-0.057,-0.0596,-0.0566,-0.0563,-0.054,-0.0559,-0.0557,-0.0517,-0.0518,-0.0336,-0.0219,0,0,0,-0.0559,-0.055,-0.0552,-0.0556,-0.0575,-0.0572,-0.058,-0.0566,-0.0577,-0.056,-0.0557,-0.0517,-0.0518,-0.034,-0.0228,-0.0145,0,0,0,-0.0533,-0.0496,-0.055,-0.0505,-0.0575,-0.0556,-0.0581,-0.0555,-0.0535,-0.0558,-0.0517,-0.0518,-0.0342,-0.0234,-0.0151,-0.0202,-0.0178,0,0,-0.047,-0.0488,-0.046,-0.0509,-0.0456,-0.0552,-0.0486,-0.0471,-0.0536,-0.0522,-0.0522,-0.0335,-0.0229,-0.0146,-0.0237,-0.0211,0,0,0,-0.0428,-0.0402,-0.0397,-0.0378,-0.04,-0.0373,-0.0415,-0.0444,-0.044,-0.053,-0.04,-0.034,-0.0292,-0.0339,-0.032,-0.0521,-0.0521,-0.0521,-0.052,-0.0295,-0.0305,-0.0231,-0.0235,-0.0222,-0.0247,-0.0231,-0.0284,-0.0355,-0.0356,-0.0237,-0.011,-0.0163,-0.0148,-0.0316,-0.0315,-0.0315,-0.0314,-0.0314,-0.0157,-0.0103,-0.0091,-0.0027,-0.0018,0.0026,-0.0011,-0.0059,-0.0042,-0.0159,-0.0122,-0.0202,-0.0116,-0.03,-0.0303,-0.0305,-0.0306,-0.0307,-0.0308,-0.0063,-0.0033,0.0008,0.0117,0.0223,0.022,0.0333,0.0274,0.0156,0.0208,0.0114,0.0109,0.0057,0.0222,0.0223,0.0224,0.0225,0.0225,0.0226,0.0017,0.0062,0.0165,0.0269,0.0368,0.0497,0.0539,0.055,0.0462,0.0324,0.0321,0.007,0.0052,0.0084,0.0239,0.0237,0.0235,0.0234,0.0233,0.0132,0.0138,0.0293,0.0397,0.0622,0.0793,0.0808,0.0798,0.0751,0.0708,0.0357,0.0349,0.029,0.0269,0.0301,0.0505,0.0505,0.0505,0.0505,0.0205,0.0218,0.0434,0.0616,0.0816,0.0941,0.1044,0.0849,0.0625,0.0394,0.0398,0.0245,0.0236,0.0163,0.0144,0.0169,0.0339,0.0339,0.0338,0.0301,0.0344,0.0518,0.0678,0.0912,0.1085,0.1126,0.0901,0.0506,0.0329,0.0338,0.05,0.0277,0.0264,0.0143,0.0117,0.0153,0,0]}],[{"header":{"parameterUnit":"m.s-1","parameterCategory":2,"la1":30.2992,"la2":30.254,"lo1":-89.0895,"lo2":-89.0443,"dy":0.0025,"dx":0.0025,"nx":19,"ny":19,"refTime":"2026-03-20T21:00:00:Z","depth":"4","parameterNumber":2,"parameterNumberName":"U-component_of_CURRENTS"},"data":[0,0,0,0.0696,0.0698,0.0813,0.0813,0.0876,0.0876,0,0,0,0,0,0,0,0,0,0,0,0.0668,0.0669,0.0696,0.0698,0.0813,0.0813,0.0876,0.0876,0,0,0,0,0,0,0,0,0,0,0,0.0667,0.0669,0.067,0.0699,0.0812,0.0813,0.0876,0.0813,0,0,0,0,0,0,0,0,0,0,0.0713,0.069,0.0668,0.067,0.0699,0.0812,0.0813,0.0811,0.0817,0.0798,0,0.0823,0,0.084,0.0878,0.0878,0,0,0,0.0708,0.0686,0.0718,0.067,0.07,0.0812,0.0764,0.0815,0.0821,0.0805,0.0824,0.0827,0.0841,0.0878,0.0878,0.0941,0.0941,0,0,0.0702,0.0684,0.0714,0.0722,0.0738,0.076,0.0767,0.082,0.0827,0.0825,0.0829,0.0842,0.0878,0.0878,0.094,0.0941,0,0,0,0.0677,0.068,0.0713,0.0719,0.0741,0.0763,0.0771,0.0825,0.0837,0.083,0.0843,0.0878,0.0878,0.094,0.0941,0.1004,0,0,0,0.0674,0.0665,0.071,0.07,0.0741,0.0793,0.0775,0.0834,0.084,0.0843,0.0878,0.0879,0.0939,0.094,0.1001,0.0999,0,0,0,0.0661,0.0663,0.068,0.0699,0.0743,0.0793,0.081,0.0837,0.0847,0.0878,0.0879,0.0939,0.094,0.0998,0.0996,0.1027,0,0,0,0.0634,0.0656,0.068,0.0713,0.0742,0.0807,0.081,0.087,0.0902,0.0878,0.0939,0.094,0.0997,0.0994,0.1025,0.0897,0,0,0,0.0641,0.0656,0.0677,0.0701,0.0753,0.0792,0.0855,0.0904,0.0911,0.0916,0.0918,0.1002,0.0995,0.1026,0.0972,0,0,0,0,0.0666,0.0681,0.07,0.0743,0.0793,0.0855,0.0905,0.0931,0.0991,0.0933,0.1009,0.1003,0.1021,0.094,0.0947,0.0946,0.0946,0.0946,0.0946,0.0642,0.0682,0.0721,0.0779,0.0825,0.0907,0.0956,0.1001,0.1012,0.106,0.1062,0.1133,0.1053,0.1084,0.1085,0.1085,0.1085,0.1085,0.1085,0.0646,0.0668,0.0736,0.0791,0.0867,0.0933,0.1024,0.1064,0.1125,0.1122,0.1138,0.1021,0.1092,0.1091,0.109,0.1089,0.1088,0.1088,0.1088,0.0613,0.063,0.0687,0.0773,0.0868,0.0968,0.1041,0.1119,0.1174,0.1197,0.1123,0.1168,0.1153,0.1231,0.1231,0.1231,0.1231,0.1232,0.1232,0.0552,0.0605,0.0651,0.0752,0.0815,0.0929,0.1067,0.111,0.1191,0.116,0.1227,0.1182,0.1177,0.1161,0.1234,0.1234,0.1233,0.1233,0.1233,0.0495,0.0528,0.0577,0.0637,0.0773,0.0837,0.0994,0.1081,0.1114,0.1116,0.1133,0.1137,0.1095,0.1092,0.1071,0.112,0.1119,0.1117,0,0.0445,0.0468,0.0528,0.0588,0.0664,0.0783,0.0839,0.0927,0.1003,0.0979,0.1084,0.1098,0.1102,0.1047,0.1043,0.1014,0,0,0,0.0408,0.0435,0.046,0.0538,0.0615,0.0728,0.0854,0.0864,0.1004,0.1013,0.1083,0.1092,0.1148,0.1242,0.1186,0.118,0.1151,0,0]},{"header":{"parameterUnit":"m.s-1","parameterCategory":2,"la1":30.2992,"la2":30.254,"lo1":-89.0895,"lo2":-89.0443,"dy":0.0025,"dx":0.0025,"nx":19,"ny":19,"refTime":"2026-03-20T21:00:00:Z","depth":"4","parameterNumber":3,"parameterNumberName":"V-component_of_CURRENTS"},"data":[0,0,0,-0.0169,-0.017,-0.0254,-0.0255,-0.0415,-0.0416,0,0,0,0,0,0,0,0,0,0,0,-0.0146,-0.0147,-0.0169,-0.017,-0.0254,-0.0255,-0.0415,-0.0416,0,0,0,0,0,0,0,0,0,0,0,-0.0146,-0.0147,-0.0147,-0.0171,-0.0254,-0.0255,-0.0414,-0.0342,0,0,0,0,0,0,0,0,0,0,-0.0256,-0.0222,-0.0146,-0.0147,-0.0171,-0.0254,-0.0255,-0.0338,-0.0347,-0.0387,0,-0.0393,0,-0.04,-0.0427,-0.0427,0,0,0,-0.0187,-0.0214,-0.0233,-0.0147,-0.0171,-0.0253,-0.0221,-0.0343,-0.0352,-0.0398,-0.0396,-0.0401,-0.0403,-0.0428,-0.0428,-0.052,-0.052,0,0,-0.0183,-0.0171,-0.0226,-0.0238,-0.0186,-0.0218,-0.0223,-0.0348,-0.0359,-0.0396,-0.0405,-0.0406,-0.0429,-0.043,-0.052,-0.052,0,0,0,-0.0158,-0.0167,-0.0182,-0.0232,-0.0238,-0.022,-0.0226,-0.0354,-0.0357,-0.0406,-0.0407,-0.043,-0.0432,-0.052,-0.052,-0.0476,0,0,0,-0.0156,-0.0152,-0.018,-0.0175,-0.0235,-0.0289,-0.0229,-0.0349,-0.0362,-0.0407,-0.043,-0.0433,-0.052,-0.052,-0.0477,-0.0437,0,0,0,-0.0144,-0.0151,-0.0157,-0.0174,-0.0201,-0.0287,-0.0298,-0.0352,-0.0363,-0.0427,-0.0433,-0.052,-0.052,-0.0479,-0.044,-0.0439,0,0,0,-0.0134,-0.0134,-0.0156,-0.016,-0.02,-0.0228,-0.0298,-0.0345,-0.0394,-0.043,-0.052,-0.052,-0.0479,-0.0442,-0.0441,-0.0375,0,0,0,-0.0124,-0.0133,-0.0133,-0.0154,-0.0165,-0.0218,-0.0243,-0.0344,-0.0403,-0.0487,-0.0489,-0.0477,-0.0441,-0.044,-0.0353,0,0,0,0,-0.0123,-0.012,-0.0129,-0.0142,-0.0172,-0.0209,-0.0288,-0.0332,-0.0418,-0.0427,-0.0481,-0.0459,-0.0461,-0.0427,-0.0518,-0.0518,-0.0518,-0.0518,-0.0518,-0.0096,-0.0105,-0.0103,-0.0122,-0.0144,-0.0209,-0.0246,-0.0321,-0.0389,-0.0419,-0.0428,-0.0398,-0.0361,-0.0444,-0.0444,-0.0444,-0.0444,-0.0444,-0.0444,-0.0065,-0.0061,-0.0075,-0.0077,-0.0116,-0.0143,-0.0228,-0.0281,-0.0344,-0.0395,-0.0399,-0.0387,-0.0439,-0.044,-0.0441,-0.0441,-0.0442,-0.0442,-0.0442,-0.0039,-0.0038,-0.0038,-0.0037,-0.0053,-0.0109,-0.012,-0.02,-0.0295,-0.0298,-0.0296,-0.0369,-0.0369,-0.032,-0.032,-0.032,-0.032,-0.0319,-0.0319,-0.0019,-0.0015,0.0001,0.0001,0.0005,-0.0006,-0.0066,-0.01,-0.0197,-0.0222,-0.0292,-0.0357,-0.0361,-0.0363,-0.0316,-0.0317,-0.0317,-0.0318,-0.0318,0.0007,0.0009,0.0043,0.0055,0.0073,0.0078,0.0033,-0.0027,-0.006,-0.0107,-0.0195,-0.0202,-0.0213,-0.022,-0.0218,-0.0127,-0.0125,-0.0124,0,0.0022,0.0025,0.007,0.0102,0.0133,0.0119,0.012,0.0072,-0.0038,-0.0036,-0.0094,-0.0191,-0.0197,-0.0209,-0.0215,-0.0211,0,0,0,0.0036,0.0051,0.0083,0.0113,0.015,0.014,0.0119,0.01,-0.001,-0.0025,-0.0098,-0.0105,-0.0206,-0.0308,-0.0341,-0.0346,-0.0351,0,0]}]]